Year,Month,Day,Hour,Minute,Value (Times are PST for temperature in C)
2016,05,05,00,00,10.10
2016,05,05,00,01,10.20
2016,05,05,00,02,10.20
2016,05,05,00,03,10.20
2016,05,05,00,04,10.20
2016,05,05,00,05,10.10
2016,05,05,00,06,10.10
2016,05,05,00,07,10.10
2016,05,05,00,08,10.00
2016,05,05,00,09,10.00
2016,05,05,00,10,9.90
2016,05,05,00,11,9.90
2016,05,05,00,12,9.90
2016,05,05,00,13,9.90
2016,05,05,00,14,9.90
2016,05,05,00,15,9.80
2016,05,05,00,16,9.80
2016,05,05,00,17,9.70
2016,05,05,00,18,9.70
2016,05,05,00,19,9.70
2016,05,05,00,20,9.60
2016,05,05,00,21,9.60
2016,05,05,00,22,9.60
2016,05,05,00,23,9.60
2016,05,05,00,24,9.60
2016,05,05,00,26,9.60
2016,05,05,00,27,9.60
2016,05,05,00,28,9.60
2016,05,05,00,29,9.60
2016,05,05,00,30,9.60
2016,05,05,00,31,9.60
2016,05,05,00,32,9.50
2016,05,05,00,33,9.50
2016,05,05,00,34,9.50
2016,05,05,00,36,9.40
2016,05,05,00,37,9.40
2016,05,05,00,38,9.30
2016,05,05,00,39,9.30
2016,05,05,00,40,9.30
2016,05,05,00,41,9.30
2016,05,05,00,42,9.30
2016,05,05,00,43,9.20
2016,05,05,00,44,9.20
2016,05,05,00,45,9.20
2016,05,05,00,46,9.20
2016,05,05,00,47,9.20
2016,05,05,00,48,9.20
2016,05,05,00,49,9.10
2016,05,05,00,50,9.10
2016,05,05,00,51,9.10
2016,05,05,00,52,9.00
2016,05,05,00,53,8.90
2016,05,05,00,54,8.90
2016,05,05,00,55,8.90
2016,05,05,00,56,8.80
2016,05,05,00,57,8.80
2016,05,05,00,58,8.80
2016,05,05,00,59,8.80
2016,05,05,01,00,8.80
2016,05,05,01,01,8.80
2016,05,05,01,02,8.70
2016,05,05,01,03,8.70
2016,05,05,01,04,8.70
2016,05,05,01,05,8.70
2016,05,05,01,06,8.70
2016,05,05,01,07,8.70
2016,05,05,01,08,8.70
2016,05,05,01,09,8.60
2016,05,05,01,10,8.60
2016,05,05,01,11,8.60
2016,05,05,01,12,8.60
2016,05,05,01,13,8.60
2016,05,05,01,14,8.50
2016,05,05,01,15,8.50
2016,05,05,01,16,8.40
2016,05,05,01,17,8.40
2016,05,05,01,18,8.40
2016,05,05,01,19,8.40
2016,05,05,01,20,8.30
2016,05,05,01,21,8.30
2016,05,05,01,22,8.30
2016,05,05,01,23,8.30
2016,05,05,01,24,8.20
2016,05,05,01,25,8.20
2016,05,05,01,26,8.20
2016,05,05,01,27,8.20
2016,05,05,01,28,8.20
2016,05,05,01,29,8.20
2016,05,05,01,30,8.20
2016,05,05,01,31,8.20
2016,05,05,01,32,8.10
2016,05,05,01,33,8.10
2016,05,05,01,34,8.10
2016,05,05,01,36,8.10
2016,05,05,01,37,8.10
2016,05,05,01,38,8.00
2016,05,05,01,39,8.00
2016,05,05,01,40,8.00
2016,05,05,01,41,8.00
2016,05,05,01,42,7.90
2016,05,05,01,43,7.90
2016,05,05,01,44,7.90
2016,05,05,01,45,7.90
2016,05,05,01,46,7.90
2016,05,05,01,47,7.90
2016,05,05,01,48,7.90
2016,05,05,01,49,7.90
2016,05,05,01,50,7.80
2016,05,05,01,51,7.80
2016,05,05,01,52,7.80
2016,05,05,01,53,7.80
2016,05,05,01,54,7.80
2016,05,05,01,55,7.80
2016,05,05,01,56,7.80
2016,05,05,01,57,7.80
2016,05,05,01,58,7.80
2016,05,05,01,59,7.80
2016,05,05,02,00,7.80
2016,05,05,02,01,7.80
2016,05,05,02,02,7.80
2016,05,05,02,03,7.70
2016,05,05,02,04,7.70
2016,05,05,02,05,7.70
2016,05,05,02,06,7.70
2016,05,05,02,07,7.70
2016,05,05,02,08,7.70
2016,05,05,02,09,7.70
2016,05,05,02,10,7.60
2016,05,05,02,11,7.60
2016,05,05,02,12,7.60
2016,05,05,02,13,7.60
2016,05,05,02,14,7.60
2016,05,05,02,15,7.60
2016,05,05,02,16,7.60
2016,05,05,02,17,7.60
2016,05,05,02,18,7.50
2016,05,05,02,19,7.50
2016,05,05,02,20,7.50
2016,05,05,02,21,7.40
2016,05,05,02,22,7.40
2016,05,05,02,23,7.40
2016,05,05,02,24,7.40
2016,05,05,02,25,7.40
2016,05,05,02,26,7.40
2016,05,05,02,27,7.30
2016,05,05,02,28,7.30
2016,05,05,02,29,7.30
2016,05,05,02,30,7.30
2016,05,05,02,31,7.30
2016,05,05,02,32,7.30
2016,05,05,02,33,7.30
2016,05,05,02,34,7.30
2016,05,05,02,35,7.30
2016,05,05,02,36,7.30
2016,05,05,02,37,7.30
2016,05,05,02,38,7.30
2016,05,05,02,39,7.30
2016,05,05,02,40,7.20
2016,05,05,02,41,7.20
2016,05,05,02,42,7.20
2016,05,05,02,43,7.20
2016,05,05,02,44,7.20
2016,05,05,02,45,7.20
2016,05,05,02,46,7.20
2016,05,05,02,47,7.20
2016,05,05,02,48,7.20
2016,05,05,02,49,7.10
2016,05,05,02,50,7.10
2016,05,05,02,51,7.10
2016,05,05,02,52,7.10
2016,05,05,02,53,7.10
2016,05,05,02,54,7.10
2016,05,05,02,55,7.10
2016,05,05,02,56,7.10
2016,05,05,02,57,7.10
2016,05,05,02,58,7.00
2016,05,05,02,59,7.00
2016,05,05,03,00,7.00
2016,05,05,03,01,7.00
2016,05,05,03,02,7.00
2016,05,05,03,03,6.90
2016,05,05,03,04,6.90
2016,05,05,03,05,6.90
2016,05,05,03,06,6.90
2016,05,05,03,07,6.90
2016,05,05,03,08,6.90
2016,05,05,03,09,6.90
2016,05,05,03,10,6.90
2016,05,05,03,11,6.90
2016,05,05,03,12,6.90
2016,05,05,03,13,6.90
2016,05,05,03,14,6.90
2016,05,05,03,15,6.90
2016,05,05,03,16,6.90
2016,05,05,03,17,6.90
2016,05,05,03,18,6.90
2016,05,05,03,19,6.90
2016,05,05,03,20,6.90
2016,05,05,03,21,6.90
2016,05,05,03,22,6.90
2016,05,05,03,23,6.90
2016,05,05,03,24,6.90
2016,05,05,03,25,6.90
2016,05,05,03,26,6.90
2016,05,05,03,27,6.90
2016,05,05,03,28,6.80
2016,05,05,03,29,6.80
2016,05,05,03,30,6.80
2016,05,05,03,31,6.80
2016,05,05,03,32,6.80
2016,05,05,03,33,6.80
2016,05,05,03,34,6.70
2016,05,05,03,35,6.70
2016,05,05,03,36,6.70
2016,05,05,03,37,6.70
2016,05,05,03,38,6.70
2016,05,05,03,39,6.70
2016,05,05,03,40,6.70
2016,05,05,03,41,6.60
2016,05,05,03,42,6.60
2016,05,05,03,43,6.60
2016,05,05,03,44,6.60
2016,05,05,03,45,6.60
2016,05,05,03,46,6.50
2016,05,05,03,47,6.50
2016,05,05,03,48,6.40
2016,05,05,03,49,6.40
2016,05,05,03,50,6.40
2016,05,05,03,51,6.40
2016,05,05,03,52,6.40
2016,05,05,03,53,6.40
2016,05,05,03,54,6.30
2016,05,05,03,55,6.30
2016,05,05,03,56,6.30
2016,05,05,03,57,6.30
2016,05,05,03,58,6.30
2016,05,05,03,59,6.30
2016,05,05,04,00,6.30
2016,05,05,04,01,6.30
2016,05,05,04,02,6.20
2016,05,05,04,03,6.20
2016,05,05,04,04,6.20
2016,05,05,04,05,6.20
2016,05,05,04,06,6.20
2016,05,05,04,07,6.20
2016,05,05,04,08,6.20
2016,05,05,04,09,6.20
2016,05,05,04,10,6.20
2016,05,05,04,11,6.20
2016,05,05,04,12,6.20
2016,05,05,04,13,6.20
2016,05,05,04,14,6.20
2016,05,05,04,15,6.20
2016,05,05,04,16,6.20
2016,05,05,04,17,6.20
2016,05,05,04,18,6.20
2016,05,05,04,19,6.20
2016,05,05,04,20,6.20
2016,05,05,04,21,6.20
2016,05,05,04,22,6.10
2016,05,05,04,23,6.10
2016,05,05,04,24,6.10
2016,05,05,04,25,6.10
2016,05,05,04,26,6.10
2016,05,05,04,27,6.10
2016,05,05,04,28,6.10
2016,05,05,04,29,6.10
2016,05,05,04,30,6.10
2016,05,05,04,31,6.00
2016,05,05,04,32,6.00
2016,05,05,04,33,6.00
2016,05,05,04,34,6.00
2016,05,05,04,35,6.00
2016,05,05,04,36,6.00
2016,05,05,04,37,5.90
2016,05,05,04,38,5.90
2016,05,05,04,39,5.90
2016,05,05,04,40,5.90
2016,05,05,04,41,5.90
2016,05,05,04,42,5.90
2016,05,05,04,43,5.90
2016,05,05,04,44,5.90
2016,05,05,04,45,5.80
2016,05,05,04,46,5.80
2016,05,05,04,47,5.80
2016,05,05,04,48,5.80
2016,05,05,04,49,5.80
2016,05,05,04,50,5.80
2016,05,05,04,51,5.80
2016,05,05,04,52,5.80
2016,05,05,04,53,5.80
2016,05,05,04,54,5.70
2016,05,05,04,55,5.70
2016,05,05,04,56,5.70
2016,05,05,04,57,5.70
2016,05,05,04,58,5.70
2016,05,05,04,59,5.70
2016,05,05,05,00,5.70
2016,05,05,05,01,5.70
2016,05,05,05,02,5.70
2016,05,05,05,03,5.70
2016,05,05,05,04,5.70
2016,05,05,05,05,5.70
2016,05,05,05,06,5.70
2016,05,05,05,07,5.60
2016,05,05,05,08,5.60
2016,05,05,05,09,5.70
2016,05,05,05,10,5.60
2016,05,05,05,11,5.60
2016,05,05,05,12,5.60
2016,05,05,05,13,5.60
2016,05,05,05,14,5.60
2016,05,05,05,15,5.60
2016,05,05,05,16,5.60
2016,05,05,05,17,5.60
2016,05,05,05,18,5.60
2016,05,05,05,19,5.60
2016,05,05,05,20,5.60
2016,05,05,05,21,5.60
2016,05,05,05,22,5.60
2016,05,05,05,23,5.60
2016,05,05,05,24,5.60
2016,05,05,05,25,5.50
2016,05,05,05,26,5.50
2016,05,05,05,27,5.50
2016,05,05,05,28,5.50
2016,05,05,05,29,5.50
2016,05,05,05,30,5.50
2016,05,05,05,31,5.50
2016,05,05,05,32,5.50
2016,05,05,05,33,5.50
2016,05,05,05,34,5.50
2016,05,05,05,35,5.50
2016,05,05,05,36,5.50
2016,05,05,05,37,5.50
2016,05,05,05,38,5.50
2016,05,05,05,39,5.40
2016,05,05,05,40,5.40
2016,05,05,05,41,5.40
2016,05,05,05,42,5.40
2016,05,05,05,43,5.40
2016,05,05,05,44,5.40
2016,05,05,05,45,5.40
2016,05,05,05,46,5.40
2016,05,05,05,47,5.40
2016,05,05,05,48,5.30
2016,05,05,05,49,5.30
2016,05,05,05,50,5.30
2016,05,05,05,51,5.30
2016,05,05,05,52,5.30
2016,05,05,05,53,5.30
2016,05,05,05,54,5.30
2016,05,05,05,55,5.30
2016,05,05,05,56,5.30
2016,05,05,05,57,5.30
2016,05,05,05,58,5.30
2016,05,05,05,59,5.30
2016,05,05,06,00,5.30
2016,05,05,06,01,5.30
2016,05,05,06,02,5.30
2016,05,05,06,03,5.30
2016,05,05,06,04,5.30
2016,05,05,06,05,5.30
2016,05,05,06,06,5.30
2016,05,05,06,07,5.30
2016,05,05,06,08,5.30
2016,05,05,06,09,5.20
2016,05,05,06,10,5.20
2016,05,05,06,11,5.20
2016,05,05,06,12,5.20
2016,05,05,06,13,5.20
2016,05,05,06,14,5.20
2016,05,05,06,15,5.20
2016,05,05,06,16,5.20
2016,05,05,06,17,5.20
2016,05,05,06,18,5.20
2016,05,05,06,19,5.20
2016,05,05,06,20,5.20
2016,05,05,06,21,5.20
2016,05,05,06,22,5.20
2016,05,05,06,23,5.20
2016,05,05,06,24,5.20
2016,05,05,06,25,5.20
2016,05,05,06,26,5.20
2016,05,05,06,27,5.20
2016,05,05,06,28,5.20
2016,05,05,06,29,5.20
2016,05,05,06,30,5.20
2016,05,05,06,31,5.20
2016,05,05,06,32,5.20
2016,05,05,06,33,5.20
2016,05,05,06,34,5.20
2016,05,05,06,35,5.20
2016,05,05,06,36,5.20
2016,05,05,06,37,5.20
2016,05,05,06,38,5.20
2016,05,05,06,39,5.20
2016,05,05,06,40,5.20
2016,05,05,06,41,5.20
2016,05,05,06,42,5.20
2016,05,05,06,43,5.20
2016,05,05,06,44,5.20
2016,05,05,06,45,5.20
2016,05,05,06,46,5.20
2016,05,05,06,47,5.30
2016,05,05,06,48,5.30
2016,05,05,06,49,5.30
2016,05,05,06,50,5.40
2016,05,05,06,51,5.40
2016,05,05,06,52,5.50
2016,05,05,06,53,5.60
2016,05,05,06,54,5.60
2016,05,05,06,55,5.70
2016,05,05,06,56,5.80
2016,05,05,06,57,5.80
2016,05,05,06,58,5.90
2016,05,05,06,59,6.10
2016,05,05,07,00,6.10
2016,05,05,07,01,6.20
2016,05,05,07,02,6.30
2016,05,05,07,03,6.30
2016,05,05,07,04,6.40
2016,05,05,07,05,6.50
2016,05,05,07,06,6.60
2016,05,05,07,07,6.60
2016,05,05,07,08,6.60
2016,05,05,07,09,6.70
2016,05,05,07,10,6.70
2016,05,05,07,11,6.80
2016,05,05,07,12,6.80
2016,05,05,07,13,6.90
2016,05,05,07,14,6.90
2016,05,05,07,15,7.00
2016,05,05,07,16,7.10
2016,05,05,07,17,7.20
2016,05,05,07,18,7.20
2016,05,05,07,19,7.30
2016,05,05,07,20,7.40
2016,05,05,07,21,7.40
2016,05,05,07,22,7.60
2016,05,05,07,23,7.60
2016,05,05,07,24,7.70
2016,05,05,07,25,7.70
2016,05,05,07,26,7.70
2016,05,05,07,27,7.80
2016,05,05,07,28,7.80
2016,05,05,07,29,7.80
2016,05,05,07,30,7.90
2016,05,05,07,31,7.90
2016,05,05,07,32,7.90
2016,05,05,07,33,8.00
2016,05,05,07,34,8.10
2016,05,05,07,35,8.10
2016,05,05,07,36,8.20
2016,05,05,07,37,8.30
2016,05,05,07,38,8.40
2016,05,05,07,39,8.50
2016,05,05,07,40,8.60
2016,05,05,07,41,8.70
2016,05,05,07,42,8.80
2016,05,05,07,43,8.90
2016,05,05,07,44,9.00
2016,05,05,07,45,9.10
2016,05,05,07,46,9.20
2016,05,05,07,47,9.20
2016,05,05,07,48,9.30
2016,05,05,07,49,9.30
2016,05,05,07,50,9.30
2016,05,05,07,51,9.30
2016,05,05,07,52,9.40
2016,05,05,07,53,9.40
2016,05,05,07,54,9.50
2016,05,05,07,55,9.50
2016,05,05,07,56,9.60
2016,05,05,07,57,9.60
2016,05,05,07,58,9.70
2016,05,05,07,59,9.80
2016,05,05,08,00,9.80
2016,05,05,08,01,9.90
2016,05,05,08,02,9.90
2016,05,05,08,03,9.90
2016,05,05,08,04,9.90
2016,05,05,08,05,9.90
2016,05,05,08,06,9.90
2016,05,05,08,07,9.90
2016,05,05,08,08,9.90
2016,05,05,08,09,9.80
2016,05,05,08,10,9.80
2016,05,05,08,11,9.80
2016,05,05,08,12,9.80
2016,05,05,08,13,9.80
2016,05,05,08,14,9.80
2016,05,05,08,15,9.80
2016,05,05,08,16,9.80
2016,05,05,08,17,9.80
2016,05,05,08,18,9.80
2016,05,05,08,19,9.80
2016,05,05,08,20,9.70
2016,05,05,08,21,9.70
2016,05,05,08,22,9.70
2016,05,05,08,23,9.70
2016,05,05,08,24,9.60
2016,05,05,08,25,9.60
2016,05,05,08,26,9.60
2016,05,05,08,27,9.70
2016,05,05,08,28,9.70
2016,05,05,08,29,9.70
2016,05,05,08,30,9.70
2016,05,05,08,31,9.70
2016,05,05,08,32,9.70
2016,05,05,08,33,9.80
2016,05,05,08,34,9.80
2016,05,05,08,35,9.80
2016,05,05,08,36,9.90
2016,05,05,08,37,9.90
2016,05,05,08,38,10.10
2016,05,05,08,39,10.10
2016,05,05,08,40,10.20
2016,05,05,08,41,10.30
2016,05,05,08,42,10.40
2016,05,05,08,43,10.60
2016,05,05,08,44,10.70
2016,05,05,08,45,10.80
2016,05,05,08,46,10.90
2016,05,05,08,47,11.10
2016,05,05,08,48,11.10
2016,05,05,08,49,11.20
2016,05,05,08,50,11.30
2016,05,05,08,51,11.30
2016,05,05,08,52,11.40
2016,05,05,08,53,11.40
2016,05,05,08,54,11.50
2016,05,05,08,55,11.60
2016,05,05,08,56,11.70
2016,05,05,08,57,11.70
2016,05,05,08,58,11.70
2016,05,05,08,59,11.80
2016,05,05,09,00,11.80
2016,05,05,09,01,11.80
2016,05,05,09,02,11.90
2016,05,05,09,03,11.90
2016,05,05,09,04,12.00
2016,05,05,09,05,12.10
2016,05,05,09,06,12.10
2016,05,05,09,07,12.10
2016,05,05,09,08,12.10
2016,05,05,09,09,12.20
2016,05,05,09,10,12.20
2016,05,05,09,11,12.20
2016,05,05,09,12,12.30
2016,05,05,09,13,12.30
2016,05,05,09,14,12.40
2016,05,05,09,15,12.40
2016,05,05,09,16,12.50
2016,05,05,09,17,12.60
2016,05,05,09,18,12.60
2016,05,05,09,19,12.70
2016,05,05,09,20,12.70
2016,05,05,09,21,12.80
2016,05,05,09,22,12.80
2016,05,05,09,23,12.80
2016,05,05,09,24,12.80
2016,05,05,09,25,12.80
2016,05,05,09,26,12.80
2016,05,05,09,27,12.70
2016,05,05,09,28,12.70
2016,05,05,09,29,12.70
2016,05,05,09,31,12.70
2016,05,05,09,32,12.70
2016,05,05,09,33,12.60
2016,05,05,09,34,12.60
2016,05,05,09,35,12.60
2016,05,05,09,36,12.60
2016,05,05,09,37,12.60
2016,05,05,09,38,12.70
2016,05,05,09,39,12.70
2016,05,05,09,40,12.70
2016,05,05,09,41,12.80
2016,05,05,09,42,12.80
2016,05,05,09,43,12.80
2016,05,05,09,44,12.80
2016,05,05,09,45,12.90
2016,05,05,09,46,12.90
2016,05,05,09,47,13.00
2016,05,05,09,48,13.10
2016,05,05,09,49,13.20
2016,05,05,09,50,13.30
2016,05,05,09,51,13.30
2016,05,05,09,52,13.30
2016,05,05,09,53,13.40
2016,05,05,09,54,13.40
2016,05,05,09,55,13.50
2016,05,05,09,56,13.60
2016,05,05,09,57,13.60
2016,05,05,09,58,13.70
2016,05,05,09,59,13.70
2016,05,05,10,00,13.60
2016,05,05,10,01,13.60
2016,05,05,10,02,13.70
2016,05,05,10,03,13.70
2016,05,05,10,04,13.70
2016,05,05,10,05,13.70
2016,05,05,10,06,13.80
2016,05,05,10,07,13.80
2016,05,05,10,08,13.90
2016,05,05,10,09,13.90
2016,05,05,10,10,13.80
2016,05,05,10,11,13.80
2016,05,05,10,12,13.90
2016,05,05,10,13,13.90
2016,05,05,10,14,13.90
2016,05,05,10,15,14.00
2016,05,05,10,16,14.10
2016,05,05,10,17,14.10
2016,05,05,10,18,14.10
2016,05,05,10,19,14.20
2016,05,05,10,20,14.30
2016,05,05,10,21,14.30
2016,05,05,10,22,14.40
2016,05,05,10,23,14.50
2016,05,05,10,24,14.60
2016,05,05,10,25,14.70
2016,05,05,10,26,14.70
2016,05,05,10,27,14.70
2016,05,05,10,28,14.80
2016,05,05,10,29,14.90
2016,05,05,10,30,14.90
2016,05,05,10,31,15.00
2016,05,05,10,32,15.00
2016,05,05,10,33,15.10
2016,05,05,10,34,15.20
2016,05,05,10,35,15.20
2016,05,05,10,36,15.30
2016,05,05,10,37,15.30
2016,05,05,10,38,15.30
2016,05,05,10,39,15.30
2016,05,05,10,40,15.30
2016,05,05,10,41,15.40
2016,05,05,10,42,15.40
2016,05,05,10,43,15.50
2016,05,05,10,44,15.50
2016,05,05,10,45,15.60
2016,05,05,10,46,15.60
2016,05,05,10,47,15.60
2016,05,05,10,48,15.70
2016,05,05,10,49,15.70
2016,05,05,10,50,15.80
2016,05,05,10,51,15.90
2016,05,05,10,52,15.90
2016,05,05,10,53,16.00
2016,05,05,10,54,16.10
2016,05,05,10,55,16.10
2016,05,05,10,56,16.00
2016,05,05,10,57,16.00
2016,05,05,10,58,16.00
2016,05,05,10,59,16.00
2016,05,05,11,00,16.00
2016,05,05,11,01,16.10
2016,05,05,11,02,16.10
2016,05,05,11,03,16.20
2016,05,05,11,04,16.30
2016,05,05,11,05,16.40
2016,05,05,11,06,16.50
2016,05,05,11,07,16.60
2016,05,05,11,08,16.70
2016,05,05,11,09,16.80
2016,05,05,11,10,16.80
2016,05,05,11,11,16.90
2016,05,05,11,12,16.90
2016,05,05,11,13,16.90
2016,05,05,11,14,16.90
2016,05,05,11,15,16.90
2016,05,05,11,16,16.90
2016,05,05,11,17,16.90
2016,05,05,11,18,16.80
2016,05,05,11,19,16.80
2016,05,05,11,20,16.80
2016,05,05,11,21,16.90
2016,05,05,11,22,16.90
2016,05,05,11,23,17.00
2016,05,05,11,24,17.10
2016,05,05,11,25,17.10
2016,05,05,11,26,17.10
2016,05,05,11,27,17.20
2016,05,05,11,28,17.30
2016,05,05,11,29,17.30
2016,05,05,11,30,17.40
2016,05,05,11,31,17.60
2016,05,05,11,32,17.60
2016,05,05,11,33,17.70
2016,05,05,11,34,17.80
2016,05,05,11,35,17.80
2016,05,05,11,36,17.90
2016,05,05,11,37,18.00
2016,05,05,11,38,18.00
2016,05,05,11,39,18.10
2016,05,05,11,40,18.10
2016,05,05,11,41,18.10
2016,05,05,11,42,18.10
2016,05,05,11,43,18.10
2016,05,05,11,44,18.10
2016,05,05,11,45,18.10
2016,05,05,11,46,18.10
2016,05,05,11,47,18.00
2016,05,05,11,48,17.90
2016,05,05,11,49,17.90
2016,05,05,11,50,18.00
2016,05,05,11,51,18.00
2016,05,05,11,52,18.10
2016,05,05,11,53,18.10
2016,05,05,11,54,18.10
2016,05,05,11,55,18.20
2016,05,05,11,56,18.30
2016,05,05,11,57,18.30
2016,05,05,11,58,18.30
2016,05,05,11,59,18.40
2016,05,05,12,00,18.40
2016,05,05,12,01,18.40
2016,05,05,12,02,18.40
2016,05,05,12,03,18.50
2016,05,05,12,04,18.60
2016,05,05,12,05,18.60
2016,05,05,12,06,18.70
2016,05,05,12,07,18.70
2016,05,05,12,08,18.70
2016,05,05,12,09,18.70
2016,05,05,12,10,18.70
2016,05,05,12,11,18.80
2016,05,05,12,12,18.80
2016,05,05,12,13,18.80
2016,05,05,12,14,18.90
2016,05,05,12,15,18.80
2016,05,05,12,16,18.80
2016,05,05,12,17,18.80
2016,05,05,12,18,18.80
2016,05,05,12,19,18.90
2016,05,05,12,20,19.10
2016,05,05,12,21,19.20
2016,05,05,12,22,19.20
2016,05,05,12,23,19.20
2016,05,05,12,24,19.30
2016,05,05,12,26,19.50
2016,05,05,12,27,19.60
2016,05,05,12,28,19.50
2016,05,05,12,29,19.40
2016,05,05,12,30,19.40
2016,05,05,12,31,19.40
2016,05,05,12,32,19.40
2016,05,05,12,33,19.40
2016,05,05,12,34,19.60
2016,05,05,12,35,19.70
2016,05,05,12,36,19.80
2016,05,05,12,37,19.80
2016,05,05,12,38,19.80
2016,05,05,12,39,19.90
2016,05,05,12,40,19.90
2016,05,05,12,41,20.00
2016,05,05,12,42,20.10
2016,05,05,12,43,20.10
2016,05,05,12,44,20.20
2016,05,05,12,45,20.20
2016,05,05,12,46,20.20
2016,05,05,12,47,20.20
2016,05,05,12,48,20.20
2016,05,05,12,49,20.30
2016,05,05,12,50,20.40
2016,05,05,12,51,20.50
2016,05,05,12,52,20.60
2016,05,05,12,53,20.60
2016,05,05,12,54,20.70
2016,05,05,12,55,20.80
2016,05,05,12,56,20.90
2016,05,05,12,57,20.90
2016,05,05,12,58,21.00
2016,05,05,12,59,20.90
2016,05,05,13,00,20.90
2016,05,05,13,01,20.90
2016,05,05,13,02,20.90
2016,05,05,13,03,20.90
2016,05,05,13,04,20.90
2016,05,05,13,05,20.90
2016,05,05,13,06,21.00
2016,05,05,13,07,21.10
2016,05,05,13,08,21.10
2016,05,05,13,09,21.10
2016,05,05,13,10,21.10
2016,05,05,13,11,21.10
2016,05,05,13,12,21.10
2016,05,05,13,13,21.00
2016,05,05,13,14,20.90
2016,05,05,13,15,20.80
2016,05,05,13,16,20.80
2016,05,05,13,17,20.80
2016,05,05,13,18,20.80
2016,05,05,13,19,20.80
2016,05,05,13,20,20.90
2016,05,05,13,21,20.90
2016,05,05,13,22,20.90
2016,05,05,13,23,20.90
2016,05,05,13,24,20.90
2016,05,05,13,25,20.90
2016,05,05,13,26,20.80
2016,05,05,13,27,20.70
2016,05,05,13,28,20.60
2016,05,05,13,29,20.60
2016,05,05,13,30,20.70
2016,05,05,13,31,20.80
2016,05,05,13,32,20.90
2016,05,05,13,33,21.10
2016,05,05,13,34,21.20
2016,05,05,13,35,21.20
2016,05,05,13,36,21.30
2016,05,05,13,37,21.40
2016,05,05,13,38,21.50
2016,05,05,13,39,21.60
2016,05,05,13,40,21.60
2016,05,05,13,41,21.60
2016,05,05,13,42,21.60
2016,05,05,13,43,21.60
2016,05,05,13,44,21.60
2016,05,05,13,45,21.60
2016,05,05,13,46,21.60
2016,05,05,13,47,21.60
2016,05,05,13,48,21.70
2016,05,05,13,49,21.80
2016,05,05,13,50,21.90
2016,05,05,13,51,22.10
2016,05,05,13,52,22.20
2016,05,05,13,53,22.20
2016,05,05,13,54,22.30
2016,05,05,13,55,22.40
2016,05,05,13,56,22.40
2016,05,05,13,57,22.50
2016,05,05,13,58,22.60
2016,05,05,13,59,22.70
2016,05,05,14,00,22.70
2016,05,05,14,01,22.80
2016,05,05,14,02,22.80
2016,05,05,14,03,22.80
2016,05,05,14,04,22.80
2016,05,05,14,05,22.80
2016,05,05,14,06,22.80
2016,05,05,14,07,22.80
2016,05,05,14,08,22.70
2016,05,05,14,09,22.60
2016,05,05,14,10,22.40
2016,05,05,14,11,22.30
2016,05,05,14,12,22.10
2016,05,05,14,13,21.90
2016,05,05,14,14,21.90
2016,05,05,14,15,21.80
2016,05,05,14,16,21.90
2016,05,05,14,17,22.00
2016,05,05,14,18,22.20
2016,05,05,14,19,22.20
2016,05,05,14,20,22.20
2016,05,05,14,21,22.30
2016,05,05,14,22,22.30
2016,05,05,14,23,22.50
2016,05,05,14,24,22.70
2016,05,05,14,25,22.80
2016,05,05,14,26,22.90
2016,05,05,14,27,23.10
2016,05,05,14,28,23.10
2016,05,05,14,29,23.20
2016,05,05,14,30,23.20
2016,05,05,14,31,23.20
2016,05,05,14,32,23.10
2016,05,05,14,33,23.20
2016,05,05,14,34,23.20
2016,05,05,14,35,23.20
2016,05,05,14,36,23.20
2016,05,05,14,37,23.20
2016,05,05,14,38,23.30
2016,05,05,14,39,23.30
2016,05,05,14,40,23.40
2016,05,05,14,41,23.40
2016,05,05,14,42,23.40
2016,05,05,14,43,23.50
2016,05,05,14,44,23.60
2016,05,05,14,45,23.70
2016,05,05,14,46,23.80
2016,05,05,14,47,23.90
2016,05,05,14,48,24.00
2016,05,05,14,49,24.10
2016,05,05,14,50,24.20
2016,05,05,14,51,24.20
2016,05,05,14,52,24.30
2016,05,05,14,53,24.20
2016,05,05,14,54,24.20
2016,05,05,14,55,24.10
2016,05,05,14,56,24.00
2016,05,05,14,57,23.90
2016,05,05,14,58,23.90
2016,05,05,14,59,23.90
2016,05,05,15,00,24.00
2016,05,05,15,01,24.10
2016,05,05,15,02,24.20
2016,05,05,15,03,24.20
2016,05,05,15,04,24.30
2016,05,05,15,05,24.40
2016,05,05,15,06,24.40
2016,05,05,15,07,24.40
2016,05,05,15,08,24.40
2016,05,05,15,09,24.40
2016,05,05,15,10,24.60
2016,05,05,15,11,24.60
2016,05,05,15,12,24.60
2016,05,05,15,13,24.60
2016,05,05,15,14,24.60
2016,05,05,15,15,24.50
2016,05,05,15,16,24.40
2016,05,05,15,17,24.30
2016,05,05,15,18,24.30
2016,05,05,15,19,24.30
2016,05,05,15,20,24.30
2016,05,05,15,21,24.20
2016,05,05,15,22,24.10
2016,05,05,15,23,24.20
2016,05,05,15,24,24.10
2016,05,05,15,25,24.10
2016,05,05,15,26,23.90
2016,05,05,15,27,23.90
2016,05,05,15,28,23.90
2016,05,05,15,29,23.90
2016,05,05,15,30,23.80
2016,05,05,15,31,23.70
2016,05,05,15,32,23.40
2016,05,05,15,33,23.30
2016,05,05,15,34,23.30
2016,05,05,15,35,23.40
2016,05,05,15,36,23.40
2016,05,05,15,37,23.60
2016,05,05,15,38,23.70
2016,05,05,15,39,23.90
2016,05,05,15,40,24.10
2016,05,05,15,41,24.30
2016,05,05,15,42,24.40
2016,05,05,15,43,24.50
2016,05,05,15,44,24.60
2016,05,05,15,45,24.60
2016,05,05,15,46,24.60
2016,05,05,15,47,24.70
2016,05,05,15,48,24.70
2016,05,05,15,49,24.70
2016,05,05,15,50,24.70
2016,05,05,15,51,24.70
2016,05,05,15,52,24.70
2016,05,05,15,53,24.60
2016,05,05,15,54,24.30
2016,05,05,15,55,24.20
2016,05,05,15,56,24.20
2016,05,05,15,57,24.20
2016,05,05,15,58,24.20
2016,05,05,15,59,24.30
2016,05,05,16,00,24.40
2016,05,05,16,01,24.50
2016,05,05,16,02,24.60
2016,05,05,16,03,24.60
2016,05,05,16,04,24.70
2016,05,05,16,05,24.70
2016,05,05,16,06,24.60
2016,05,05,16,07,24.40
2016,05,05,16,08,24.40
2016,05,05,16,09,24.30
2016,05,05,16,10,24.20
2016,05,05,16,11,24.20
2016,05,05,16,12,24.20
2016,05,05,16,13,24.20
2016,05,05,16,14,24.20
2016,05,05,16,15,24.30
2016,05,05,16,16,24.30
2016,05,05,16,17,24.40
2016,05,05,16,18,24.50
2016,05,05,16,19,24.60
2016,05,05,16,20,24.60
2016,05,05,16,21,24.60
2016,05,05,16,22,24.70
2016,05,05,16,23,24.70
2016,05,05,16,24,24.70
2016,05,05,16,25,24.70
2016,05,05,16,26,24.70
2016,05,05,16,27,24.70
2016,05,05,16,28,24.70
2016,05,05,16,29,24.70
2016,05,05,16,30,24.80
2016,05,05,16,31,24.80
2016,05,05,16,32,24.80
2016,05,05,16,33,24.90
2016,05,05,16,34,24.80
2016,05,05,16,35,24.70
2016,05,05,16,36,24.40
2016,05,05,16,37,24.40
2016,05,05,16,38,24.30
2016,05,05,16,39,24.30
2016,05,05,16,40,24.30
2016,05,05,16,41,24.40
2016,05,05,16,42,24.60
2016,05,05,16,43,24.70
2016,05,05,16,44,24.80
2016,05,05,16,45,24.80
2016,05,05,16,46,24.90
2016,05,05,16,47,24.90
2016,05,05,16,48,24.90
2016,05,05,16,49,24.90
2016,05,05,16,50,25.00
2016,05,05,16,51,25.10
2016,05,05,16,52,25.10
2016,05,05,16,53,25.10
2016,05,05,16,54,25.10
2016,05,05,16,55,25.10
2016,05,05,16,56,25.20
2016,05,05,16,57,25.20
2016,05,05,16,58,25.10
2016,05,05,16,59,25.10
2016,05,05,17,00,24.90
2016,05,05,17,01,24.80
2016,05,05,17,02,24.80
2016,05,05,17,03,24.80
2016,05,05,17,04,24.80
2016,05,05,17,05,24.80
2016,05,05,17,06,24.80
2016,05,05,17,07,24.80
2016,05,05,17,08,24.70
2016,05,05,17,09,24.70
2016,05,05,17,10,24.70
2016,05,05,17,11,24.70
2016,05,05,17,12,24.60
2016,05,05,17,13,24.30
2016,05,05,17,14,24.10
2016,05,05,17,15,23.90
2016,05,05,17,16,23.90
2016,05,05,17,17,23.90
2016,05,05,17,18,24.10
2016,05,05,17,19,24.20
2016,05,05,17,20,24.30
2016,05,05,17,21,24.30
2016,05,05,17,22,24.40
2016,05,05,17,23,24.50
2016,05,05,17,24,24.60
2016,05,05,17,25,24.60
2016,05,05,17,26,24.50
2016,05,05,17,27,24.30
2016,05,05,17,28,24.20
2016,05,05,17,29,24.10
2016,05,05,17,30,23.80
2016,05,05,17,31,23.60
2016,05,05,17,32,23.50
2016,05,05,17,33,23.40
2016,05,05,17,34,23.50
2016,05,05,17,35,23.60
2016,05,05,17,36,23.60
2016,05,05,17,37,23.60
2016,05,05,17,38,23.40
2016,05,05,17,39,23.40
2016,05,05,17,40,23.40
2016,05,05,17,41,23.60
2016,05,05,17,42,23.70
2016,05,05,17,43,23.80
2016,05,05,17,44,23.90
2016,05,05,17,45,23.90
2016,05,05,17,46,23.90